2024/01/24 00:00:00,11.8,-6.0
2024/01/24 00:10:00,11.7,-6.1
2024/01/24 00:20:00,11.7,-6.0
2024/01/24 00:30:00,11.6,-6.0
2024/01/24 00:40:00,11.4,-5.6
2024/01/24 00:50:00,11.2,-5.6
2024/01/24 01:00:00,10.9,-5.6
2024/01/24 01:10:00,10.9,-5.4
2024/01/24 01:20:00,10.9,-5.7
2024/01/24 01:30:00,11.0,-5.6
2024/01/24 01:40:00,11.1,-5.7
2024/01/24 01:50:00,11.1,-5.9
2024/01/24 02:00:00,11.0,-5.8
2024/01/24 02:10:00,10.8,-5.6
2024/01/24 02:20:00,10.8,-5.7
2024/01/24 02:30:00,10.7,-6.0
2024/01/24 02:40:00,10.5,-5.8
2024/01/24 02:50:00,10.5,-5.9
2024/01/24 03:00:00,10.6,-5.6
2024/01/24 03:10:00,10.6,-5.4
2024/01/24 03:20:00,10.5,-5.6
2024/01/24 03:30:00,10.4,-5.5
2024/01/24 03:40:00,10.4,-5.6
2024/01/24 03:50:00,10.4,-5.3
2024/01/24 04:00:00,10.2,-5.8
2024/01/24 04:10:00,10.1,-5.4
2024/01/24 04:20:00,10.1,-5.4
2024/01/24 04:30:00,10.0,-5.7
2024/01/24 04:40:00, 9.8,-5.5
2024/01/24 04:50:00, 9.8,-5.5
2024/01/24 05:00:00, 9.8,-5.5
2024/01/24 05:10:00, 9.6,-5.9
2024/01/24 05:20:00, 9.6,-5.6
2024/01/24 05:30:00, 9.4,-5.7
2024/01/24 05:40:00, 9.3,-5.6
2024/01/24 05:50:00, 9.2,-5.6
2024/01/24 06:00:00, 9.1,-5.9
2024/01/24 06:10:00, 9.0,-5.6
2024/01/24 06:20:00, 8.9,-5.8
2024/01/24 06:30:00, 8.8,-5.7
2024/01/24 06:40:00, 8.8,-5.7
2024/01/24 06:50:00, 8.7,-5.6
2024/01/24 07:00:00, 8.6,-5.7
2024/01/24 07:10:00, 8.6,-5.9
2024/01/24 07:20:00, 8.6,-5.9
2024/01/24 07:30:00, 8.5,-5.9
2024/01/24 07:40:00, 8.5,-6.2
2024/01/24 07:50:00, 8.5,-6.1
2024/01/24 08:00:00, 8.4,-6.1
2024/01/24 08:10:00, 8.3,-5.4
2024/01/24 08:20:00, 8.2,-5.3
2024/01/24 08:30:00, 8.1,-5.1
2024/01/24 08:40:00, 8.0,-4.5
2024/01/24 08:50:00, 7.9,-4.5
2024/01/24 09:00:00, 7.9,-3.6
2024/01/24 09:10:00, 7.7,-3.9
2024/01/24 09:20:00, 7.6,-4.1
2024/01/24 09:30:00, 7.6,-3.7
2024/01/24 09:40:00, 7.5,-3.9
2024/01/24 09:50:00, 7.9,-3.5
2024/01/24 10:00:00, 7.9,-3.3
2024/01/24 10:10:00, 8.0,-3.3
2024/01/24 10:20:00, 8.4,-3.3
2024/01/24 10:30:00, 8.4,-3.3
2024/01/24 10:40:00, 8.8,-3.6
2024/01/24 10:50:00, 9.8,-3.7
2024/01/24 11:00:00,10.3,-3.3
2024/01/24 11:10:00,10.2,-3.3
2024/01/24 11:20:00,10.4,-3.4
2024/01/24 11:30:00,10.8,-3.3
2024/01/24 11:40:00,10.9,-2.8
2024/01/24 11:50:00,10.7,-2.8
2024/01/24 12:00:00,10.6,-2.7
2024/01/24 12:10:00,10.7,-2.6
2024/01/24 12:20:00,10.8,-2.8
2024/01/24 12:30:00,11.0,-3.1
2024/01/24 12:40:00,11.4,-3.1
2024/01/24 12:50:00,12.1,-3.2
2024/01/24 13:00:00,12.6,-3.3
2024/01/24 13:10:00,13.1,-3.2
2024/01/24 13:20:00,13.8,-3.2
2024/01/24 13:30:00,13.6,-3.1
2024/01/24 13:40:00,14.4,-3.2
2024/01/24 13:50:00,14.6,-3.1
2024/01/24 14:00:00,14.6,-2.9
2024/01/24 14:10:00,14.6,-2.8
2024/01/24 14:20:00,14.5,-2.8
2024/01/24 14:30:00,14.5,-2.8
2024/01/24 14:40:00,14.4,-3.0
2024/01/24 14:50:00,14.5,-3.0
2024/01/24 15:00:00,14.4,-3.0
2024/01/24 15:10:00,14.3,-3.1
2024/01/24 15:20:00,14.2,-3.2
2024/01/24 15:30:00,14.2,-3.3
2024/01/24 15:40:00,14.1,-3.3
2024/01/24 15:50:00,14.1,-3.3
2024/01/24 16:00:00,14.1,-3.1
2024/01/24 16:10:00,14.2,-3.2
2024/01/24 16:20:00,14.1,-3.1
2024/01/24 16:30:00,14.2,-3.4
2024/01/24 16:40:00,14.2,-3.7
2024/01/24 16:50:00,14.4,-3.7
2024/01/24 17:00:00,14.5,-3.9
2024/01/24 17:10:00,14.6,-3.9
2024/01/24 17:20:00,15.2,-4.1
2024/01/24 17:30:00,15.7,-4.1
2024/01/24 17:40:00,15.9,-4.4
2024/01/24 17:50:00,15.8,-4.5
2024/01/24 18:00:00,15.9,-4.4
2024/01/24 18:10:00,16.2,-4.3
2024/01/24 18:20:00,16.2,-4.5
2024/01/24 18:30:00,16.4,-4.3
2024/01/24 18:40:00,17.4,-4.3
2024/01/24 18:50:00,17.6,-4.2
2024/01/24 19:00:00,17.4,-4.3
2024/01/24 19:10:00,17.7,-4.3
2024/01/24 19:20:00,18.6,-4.2
2024/01/24 19:30:00,18.8,-4.2
2024/01/24 19:40:00,19.1,-4.2
2024/01/24 19:50:00,19.3,-4.1
2024/01/24 20:00:00,19.1,-4.2
2024/01/24 20:10:00,19.5,-4.0
2024/01/24 20:20:00,19.5,-3.9
2024/01/24 20:30:00,19.4,-4.0
2024/01/24 20:40:00,19.4,-3.8
2024/01/24 20:50:00,19.6,-3.9
2024/01/24 21:00:00,19.8,-3.8
2024/01/24 21:10:00,20.1,-3.8
2024/01/24 21:20:00,20.2,-3.9
2024/01/24 21:30:00,20.3,-3.8
2024/01/24 21:40:00,20.2,-3.7
2024/01/24 21:50:00,20.4,-4.0
2024/01/24 22:00:00,20.3,-3.9
2024/01/24 22:10:00,20.1,-3.6
2024/01/24 22:20:00,20.1,-3.7
2024/01/24 22:30:00,20.3,-3.9
2024/01/24 22:40:00,20.5,-3.6
2024/01/24 22:50:00,21.0,-3.3
2024/01/24 23:00:00,21.8,-3.6
2024/01/24 23:10:00,22.0,-3.6
2024/01/24 23:20:00,22.1,-3.5
2024/01/24 23:30:00,22.8,-3.5
2024/01/24 23:40:00,23.6,-3.7
2024/01/24 23:50:00,24.5,-3.7
